Terminal Aerodrome Forecast
Issued by NWS Kansas City/Pleasant Hill, MO

Home | Current Version | Previous Version | Text Only | Print | Product List | Glossary On
Versions: 1 2 3 4 5 6 7 8 9 10 11 12 13 14 15
000
FTUS43 KEAX 271100
TAFMCI
TAF
KMCI 271120Z 2712/2812 12009KT P6SM BKN080
     FM271900 10008KT P6SM BKN050
     FM280800 14008KT P6SM OVC070=

USA.gov is the U.S. government's official web portal to all federal, state and local government web resources and services.